Time,TemperatureF,DewpointF,PressureIn,WindDirection,WindDirectionDegrees,WindSpeedMPH,WindSpeedGustMPH,Humidity,HourlyPrecipIn,Conditions,Clouds,dailyrainin,SoftwareType,DateUTC
2013-01-16 00:02:00,25.0,19.0,30.08,WSW,254,2.0,5.0,77,0.00,,,0.00,,2013-01-16 06:02:00,
2013-01-16 00:12:00,25.0,19.0,30.08,WSW,254,2.0,5.0,77,0.00,,,0.00,,2013-01-16 06:12:00,
2013-01-16 00:22:00,27.0,20.0,30.08,SW,222,1.0,5.0,73,0.00,,,0.00,,2013-01-16 06:22:00,
2013-01-16 00:32:00,28.0,20.0,30.07,SW,224,1.0,3.0,73,0.00,,,0.00,,2013-01-16 06:32:00,
2013-01-16 00:43:00,28.0,20.0,30.07,SW,224,1.0,3.0,73,0.00,,,0.00,,2013-01-16 06:43:00,
2013-01-16 00:52:00,27.0,20.0,30.07,SSW,204,1.0,4.0,74,0.00,,,0.00,,2013-01-16 06:52:00,
2013-01-16 01:02:00,28.0,21.0,30.07,SW,232,1.0,5.0,75,0.00,,,0.00,,2013-01-16 07:02:00,
2013-01-16 01:12:00,28.0,21.0,30.07,SW,232,1.0,5.0,75,0.00,,,0.00,,2013-01-16 07:12:00,
2013-01-16 01:22:00,28.0,21.0,30.07,West,259,3.0,7.0,75,0.00,,,0.00,,2013-01-16 07:22:00,
2013-01-16 01:32:00,29.0,22.0,30.07,SW,227,2.0,6.0,76,0.00,,,0.00,,2013-01-16 07:32:00,
2013-01-16 01:42:00,29.0,22.0,30.07,SW,227,2.0,6.0,76,0.00,,,0.00,,2013-01-16 07:42:00,
2013-01-16 01:52:00,29.0,22.0,30.07,SW,227,2.0,6.0,76,0.00,,,0.00,,2013-01-16 07:52:00,
2013-01-16 02:02:00,29.0,22.0,30.07,SW,227,2.0,6.0,76,0.00,,,0.00,,2013-01-16 08:02:00,
2013-01-16 02:22:00,29.0,23.0,30.07,SW,232,2.0,5.0,77,0.00,,,0.00,,2013-01-16 08:22:00,
2013-01-16 02:32:00,29.0,23.0,30.06,WSW,249,0.0,3.0,78,0.00,,,0.00,,2013-01-16 08:32:00,
2013-01-16 02:42:00,29.0,23.0,30.06,WSW,249,0.0,3.0,78,0.00,,,0.00,,2013-01-16 08:42:00,
2013-01-16 02:52:00,30.0,24.0,30.07,WSW,244,0.0,3.0,79,0.00,,,0.00,,2013-01-16 08:52:00,
2013-01-16 03:02:00,30.0,25.0,30.07,WSW,242,1.0,4.0,80,0.00,,,0.00,,2013-01-16 09:02:00,
2013-01-16 03:12:00,30.0,25.0,30.07,WSW,242,1.0,4.0,80,0.00,,,0.00,,2013-01-16 09:12:00,
2013-01-16 03:22:00,30.0,25.0,30.07,WSW,242,1.0,4.0,80,0.00,,,0.00,,2013-01-16 09:22:00,
2013-01-16 03:32:00,31.0,26.0,30.07,WSW,246,2.0,6.0,80,0.00,,,0.00,,2013-01-16 09:32:00,
2013-01-16 03:43:00,31.0,26.0,30.07,WSW,246,2.0,6.0,80,0.00,,,0.00,,2013-01-16 09:43:00,
2013-01-16 03:53:00,32.0,26.0,30.07,WSW,257,3.0,5.0,78,0.00,,,0.00,,2013-01-16 09:53:00,
2013-01-16 04:02:00,32.0,26.0,30.07,SW,219,4.0,9.0,78,0.00,,,0.00,,2013-01-16 10:02:00,
2013-01-16 04:12:00,32.0,26.0,30.07,SW,219,4.0,9.0,78,0.00,,,0.00,,2013-01-16 10:12:00,
2013-01-16 04:22:00,32.0,26.0,30.06,SW,234,3.0,11.0,78,0.00,,,0.00,,2013-01-16 10:22:00,
2013-01-16 04:32:00,32.0,26.0,30.06,WSW,238,4.0,9.0,78,0.00,,,0.00,,2013-01-16 10:32:00,
2013-01-16 04:42:00,32.0,26.0,30.06,WSW,238,4.0,9.0,78,0.00,,,0.00,,2013-01-16 10:42:00,
2013-01-16 04:52:00,32.0,26.0,30.05,SW,233,4.0,9.0,78,0.00,,,0.00,,2013-01-16 10:52:00,
2013-01-16 05:02:00,32.0,26.0,30.05,West,263,4.0,8.0,77,0.00,,,0.00,,2013-01-16 11:02:00,
2013-01-16 05:12:00,32.0,26.0,30.05,West,263,4.0,8.0,77,0.00,,,0.00,,2013-01-16 11:12:00,
2013-01-16 05:22:00,32.0,26.0,30.06,WSW,240,5.0,11.0,77,0.00,,,0.00,,2013-01-16 11:22:00,
2013-01-16 05:33:00,32.0,26.0,30.05,WSW,249,4.0,10.0,77,0.00,,,0.00,,2013-01-16 11:33:00,
2013-01-16 05:42:00,32.0,26.0,30.05,WSW,249,4.0,10.0,77,0.00,,,0.00,,2013-01-16 11:42:00,
2013-01-16 05:52:00,33.0,26.0,30.05,WSW,241,4.0,8.0,76,0.00,,,0.00,,2013-01-16 11:52:00,
2013-01-16 06:03:00,32.0,25.0,30.05,SW,235,4.0,9.0,75,0.00,,,0.00,,2013-01-16 12:03:00,
2013-01-16 06:13:00,32.0,25.0,30.05,SW,235,4.0,9.0,75,0.00,,,0.00,,2013-01-16 12:13:00,
2013-01-16 06:22:00,32.0,25.0,30.06,SW,231,6.0,10.0,74,0.00,,,0.00,,2013-01-16 12:22:00,
2013-01-16 06:33:00,32.0,24.0,30.06,WSW,254,5.0,13.0,72,0.00,,,0.00,,2013-01-16 12:33:00,
2013-01-16 06:43:00,32.0,24.0,30.06,WSW,254,5.0,13.0,72,0.00,,,0.00,,2013-01-16 12:43:00,
2013-01-16 06:53:00,32.0,24.0,30.07,WSW,251,7.0,13.0,71,0.00,,,0.00,,2013-01-16 12:53:00,
2013-01-16 07:03:00,32.0,23.0,30.08,WSW,239,6.0,12.0,70,0.00,,,0.00,,2013-01-16 13:03:00,
2013-01-16 07:12:00,32.0,23.0,30.08,WSW,239,6.0,12.0,70,0.00,,,0.00,,2013-01-16 13:12:00,
2013-01-16 07:22:00,32.0,23.0,30.08,SSW,202,6.0,11.0,70,0.00,,,0.00,,2013-01-16 13:22:00,
2013-01-16 07:33:00,31.0,22.0,30.09,WSW,255,6.0,11.0,70,0.00,,,0.00,,2013-01-16 13:33:00,
2013-01-16 07:43:00,31.0,22.0,30.09,WSW,255,6.0,11.0,70,0.00,,,0.00,,2013-01-16 13:43:00,
2013-01-16 07:52:00,30.0,22.0,30.08,SSW,208,6.0,11.0,71,0.00,,,0.00,,2013-01-16 13:52:00,
2013-01-16 08:03:00,29.0,21.0,30.09,WSW,258,5.0,13.0,72,0.00,,,0.00,,2013-01-16 14:03:00,
2013-01-16 08:12:00,29.0,21.0,30.09,WSW,258,5.0,13.0,72,0.00,,,0.00,,2013-01-16 14:12:00,
2013-01-16 08:23:00,29.0,21.0,30.09,WSW,250,5.0,10.0,72,0.00,,,0.00,,2013-01-16 14:23:00,
2013-01-16 08:33:00,29.0,21.0,30.10,WSW,248,4.0,9.0,72,0.00,,,0.00,,2013-01-16 14:33:00,
2013-01-16 08:42:00,29.0,21.0,30.10,WSW,248,4.0,9.0,72,0.00,,,0.00,,2013-01-16 14:42:00,
2013-01-16 08:53:00,29.0,21.0,30.10,SW,236,2.0,7.0,72,0.00,,,0.00,,2013-01-16 14:53:00,
2013-01-16 09:03:00,29.0,21.0,30.11,WSW,248,0.0,3.0,72,0.00,,,0.00,,2013-01-16 15:03:00,
2013-01-16 09:12:00,29.0,21.0,30.11,WSW,248,0.0,3.0,72,0.00,,,0.00,,2013-01-16 15:12:00,
2013-01-16 09:23:00,29.0,21.0,30.11,WSW,248,3.0,7.0,72,0.00,,,0.00,,2013-01-16 15:23:00,
2013-01-16 09:33:00,30.0,22.0,30.11,SW,234,2.0,7.0,71,0.00,,,0.00,,2013-01-16 15:33:00,
2013-01-16 09:43:00,30.0,22.0,30.11,SW,234,2.0,7.0,71,0.00,,,0.00,,2013-01-16 15:43:00,
2013-01-16 09:52:00,30.0,22.0,30.11,SW,234,2.0,7.0,71,0.00,,,0.00,,2013-01-16 15:52:00,
2013-01-16 10:03:00,31.0,22.0,30.12,WSW,252,5.0,8.0,69,0.00,,,0.00,,2013-01-16 16:03:00,
2013-01-16 10:12:00,31.0,22.0,30.12,WSW,252,5.0,8.0,69,0.00,,,0.00,,2013-01-16 16:12:00,
2013-01-16 10:22:00,33.0,23.0,30.11,WSW,250,2.0,6.0,67,0.00,,,0.00,,2013-01-16 16:22:00,
2013-01-16 10:33:00,34.0,23.0,30.11,WSW,248,3.0,8.0,64,0.00,,,0.00,,2013-01-16 16:33:00,
2013-01-16 10:42:00,34.0,23.0,30.11,WSW,248,3.0,8.0,64,0.00,,,0.00,,2013-01-16 16:42:00,
2013-01-16 10:52:00,35.0,24.0,30.11,SW,217,2.0,8.0,63,0.00,,,0.00,,2013-01-16 16:52:00,
2013-01-16 11:03:00,37.0,24.0,30.10,WSW,238,5.0,9.0,60,0.00,,,0.00,,2013-01-16 17:03:00,
2013-01-16 11:12:00,37.0,24.0,30.10,WSW,238,5.0,9.0,60,0.00,,,0.00,,2013-01-16 17:12:00,
2013-01-16 11:23:00,40.0,26.0,30.10,WSW,252,3.0,9.0,56,0.00,,,0.00,,2013-01-16 17:23:00,
2013-01-16 11:33:00,41.0,26.0,30.10,West,263,6.0,12.0,54,0.00,,,0.00,,2013-01-16 17:33:00,
2013-01-16 11:43:00,41.0,26.0,30.10,West,263,6.0,12.0,54,0.00,,,0.00,,2013-01-16 17:43:00,
2013-01-16 11:53:00,43.0,26.0,30.10,WSW,243,5.0,12.0,51,0.00,,,0.00,,2013-01-16 17:53:00,
2013-01-16 12:03:00,44.0,27.0,30.09,WSW,248,6.0,13.0,50,0.00,,,0.00,,2013-01-16 18:03:00,
2013-01-16 12:13:00,44.0,27.0,30.09,WSW,248,6.0,13.0,50,0.00,,,0.00,,2013-01-16 18:13:00,
2013-01-16 12:23:00,45.0,27.0,30.09,West,272,6.0,13.0,49,0.00,,,0.00,,2013-01-16 18:23:00,
2013-01-16 12:33:00,45.0,26.0,30.08,WSW,241,7.0,13.0,47,0.00,,,0.00,,2013-01-16 18:33:00,
2013-01-16 12:42:00,45.0,26.0,30.08,WSW,241,7.0,13.0,47,0.00,,,0.00,,2013-01-16 18:42:00,
2013-01-16 12:53:00,46.0,27.0,30.08,WSW,248,7.0,12.0,47,0.00,,,0.00,,2013-01-16 18:53:00,
2013-01-16 13:03:00,46.0,26.0,30.08,SW,225,5.0,17.0,46,0.00,,,0.00,,2013-01-16 19:03:00,
2013-01-16 13:12:00,46.0,26.0,30.08,SW,225,5.0,17.0,46,0.00,,,0.00,,2013-01-16 19:12:00,
2013-01-16 13:23:00,48.0,27.0,30.08,West,261,5.0,13.0,43,0.00,,,0.00,,2013-01-16 19:23:00,
2013-01-16 13:33:00,48.0,27.0,30.08,WSW,250,7.0,14.0,43,0.00,,,0.00,,2013-01-16 19:33:00,
2013-01-16 13:43:00,48.0,27.0,30.08,WSW,250,7.0,14.0,43,0.00,,,0.00,,2013-01-16 19:43:00,
2013-01-16 13:52:00,49.0,26.0,30.08,WSW,246,5.0,16.0,41,0.00,,,0.00,,2013-01-16 19:52:00,
2013-01-16 14:03:00,49.0,26.0,30.08,WSW,239,7.0,17.0,41,0.00,,,0.00,,2013-01-16 20:03:00,
2013-01-16 14:12:00,49.0,26.0,30.08,WSW,239,7.0,17.0,41,0.00,,,0.00,,2013-01-16 20:12:00,
2013-01-16 14:23:00,50.0,27.0,30.07,WSW,244,8.0,14.0,40,0.00,,,0.00,,2013-01-16 20:23:00,
2013-01-16 14:33:00,50.0,26.0,30.07,WSW,246,5.0,15.0,39,0.00,,,0.00,,2013-01-16 20:33:00,
2013-01-16 14:42:00,50.0,26.0,30.07,WSW,246,5.0,15.0,39,0.00,,,0.00,,2013-01-16 20:42:00,
2013-01-16 14:53:00,50.0,25.0,30.07,WSW,247,4.0,13.0,38,0.00,,,0.00,,2013-01-16 20:53:00,
2013-01-16 15:03:00,50.0,25.0,30.07,SW,230,6.0,16.0,38,0.00,,,0.00,,2013-01-16 21:03:00,
2013-01-16 15:12:00,50.0,25.0,30.07,SW,230,6.0,16.0,38,0.00,,,0.00,,2013-01-16 21:12:00,
2013-01-16 15:22:00,51.0,26.0,30.08,WSW,255,3.0,12.0,38,0.00,,,0.00,,2013-01-16 21:22:00,
2013-01-16 15:33:00,50.0,25.0,30.08,WSW,250,4.0,12.0,38,0.00,,,0.00,,2013-01-16 21:33:00,
2013-01-16 15:43:00,50.0,25.0,30.08,WSW,250,4.0,12.0,38,0.00,,,0.00,,2013-01-16 21:43:00,
2013-01-16 15:52:00,50.0,25.0,30.09,NNE,28,5.0,15.0,38,0.00,,,0.00,,2013-01-16 21:52:00,
2013-01-16 16:02:00,48.0,25.0,30.09,SW,231,5.0,13.0,41,0.00,,,0.00,,2013-01-16 22:02:00,
2013-01-16 16:12:00,48.0,25.0,30.09,SW,231,5.0,13.0,41,0.00,,,0.00,,2013-01-16 22:12:00,
2013-01-16 16:23:00,48.0,25.0,30.09,SW,231,5.0,13.0,41,0.00,,,0.00,,2013-01-16 22:23:00,
2013-01-16 16:33:00,47.0,25.0,30.11,WSW,249,2.0,7.0,42,0.00,,,0.00,,2013-01-16 22:33:00,
2013-01-16 16:43:00,47.0,25.0,30.11,WSW,249,2.0,7.0,42,0.00,,,0.00,,2013-01-16 22:43:00,
2013-01-16 16:53:00,47.0,24.0,30.12,WSW,239,4.0,7.0,40,0.00,,,0.00,,2013-01-16 22:53:00,
2013-01-16 17:03:00,47.0,25.0,30.13,WSW,244,2.0,8.0,42,0.00,,,0.00,,2013-01-16 23:03:00,
2013-01-16 17:12:00,47.0,25.0,30.13,WSW,244,2.0,8.0,42,0.00,,,0.00,,2013-01-16 23:12:00,
2013-01-16 17:23:00,46.0,25.0,30.13,WSW,237,3.0,10.0,43,0.00,,,0.00,,2013-01-16 23:23:00,
2013-01-16 17:32:00,46.0,25.0,30.14,West,261,1.0,8.0,43,0.00,,,0.00,,2013-01-16 23:32:00,
2013-01-16 17:42:00,46.0,25.0,30.14,West,261,1.0,8.0,43,0.00,,,0.00,,2013-01-16 23:42:00,
2013-01-16 17:52:00,44.0,23.0,30.15,WNW,285,1.0,11.0,44,0.00,,,0.00,,2013-01-16 23:52:00,
2013-01-16 18:02:00,43.0,24.0,30.16,WSW,254,2.0,7.0,46,0.00,,,0.00,,2013-01-17 00:02:00,
2013-01-16 18:12:00,43.0,24.0,30.16,WSW,254,2.0,7.0,46,0.00,,,0.00,,2013-01-17 00:12:00,
2013-01-16 18:22:00,41.0,23.0,30.16,West,280,0.0,6.0,49,0.00,,,0.00,,2013-01-17 00:22:00,
2013-01-16 18:32:00,40.0,23.0,30.17,WSW,254,0.0,4.0,51,0.00,,,0.00,,2013-01-17 00:32:00,
2013-01-16 18:42:00,40.0,23.0,30.17,WSW,254,0.0,4.0,51,0.00,,,0.00,,2013-01-17 00:42:00,
2013-01-16 18:52:00,40.0,24.0,30.17,WSW,246,1.0,4.0,52,0.00,,,0.00,,2013-01-17 00:52:00,
2013-01-16 19:02:00,39.0,23.0,30.18,WSW,248,0.0,4.0,53,0.00,,,0.00,,2013-01-17 01:02:00,
2013-01-16 19:12:00,39.0,23.0,30.18,WSW,248,0.0,4.0,53,0.00,,,0.00,,2013-01-17 01:12:00,
2013-01-16 19:22:00,38.0,23.0,30.19,West,273,1.0,5.0,55,0.00,,,0.00,,2013-01-17 01:22:00,
2013-01-16 19:33:00,38.0,24.0,30.19,WSW,258,0.0,4.0,56,0.00,,,0.00,,2013-01-17 01:33:00,
2013-01-16 19:42:00,38.0,24.0,30.19,WSW,258,0.0,4.0,56,0.00,,,0.00,,2013-01-17 01:42:00,
2013-01-16 19:52:00,36.0,23.0,30.20,West,274,0.0,1.0,58,0.00,,,0.00,,2013-01-17 01:52:00,
2013-01-16 20:02:00,35.0,23.0,30.20,WSW,245,0.0,2.0,61,0.00,,,0.00,,2013-01-17 02:02:00,
2013-01-16 20:12:00,35.0,23.0,30.20,WSW,245,0.0,2.0,61,0.00,,,0.00,,2013-01-17 02:12:00,
2013-01-16 20:22:00,33.0,22.0,30.21,WSW,245,0.0,0.0,64,0.00,,,0.00,,2013-01-17 02:22:00,
2013-01-16 20:32:00,33.0,23.0,30.22,WSW,245,0.0,1.0,67,0.00,,,0.00,,2013-01-17 02:32:00,
2013-01-16 20:42:00,33.0,23.0,30.22,WSW,245,0.0,1.0,67,0.00,,,0.00,,2013-01-17 02:42:00,
2013-01-16 20:52:00,33.0,23.0,30.22,WSW,245,0.0,1.0,67,0.00,,,0.00,,2013-01-17 02:52:00,
2013-01-16 21:03:00,32.0,23.0,30.23,West,260,0.0,0.0,68,0.00,,,0.00,,2013-01-17 03:03:00,
2013-01-16 21:12:00,32.0,23.0,30.23,West,260,0.0,0.0,68,0.00,,,0.00,,2013-01-17 03:12:00,
2013-01-16 21:22:00,31.0,22.0,30.23,West,267,0.0,3.0,70,0.00,,,0.00,,2013-01-17 03:22:00,
2013-01-16 21:32:00,31.0,23.0,30.23,West,259,0.0,0.0,71,0.00,,,0.00,,2013-01-17 03:32:00,
2013-01-16 21:42:00,31.0,23.0,30.23,West,259,0.0,0.0,71,0.00,,,0.00,,2013-01-17 03:42:00,
2013-01-16 21:52:00,30.0,22.0,30.24,West,259,0.0,0.0,72,0.00,,,0.00,,2013-01-17 03:52:00,
2013-01-16 22:02:00,29.0,22.0,30.24,West,259,0.0,0.0,74,0.00,,,0.00,,2013-01-17 04:02:00,
2013-01-16 22:12:00,28.0,21.0,30.25,West,259,0.0,0.0,76,0.00,,,0.00,,2013-01-17 04:12:00,
2013-01-16 22:22:00,28.0,21.0,30.25,West,259,0.0,0.0,76,0.00,,,0.00,,2013-01-17 04:22:00,
2013-01-16 22:32:00,28.0,22.0,30.25,WSW,258,0.0,0.0,77,0.00,,,0.00,,2013-01-17 04:32:00,
2013-01-16 22:42:00,28.0,22.0,30.25,WSW,258,0.0,0.0,77,0.00,,,0.00,,2013-01-17 04:42:00,
2013-01-16 22:52:00,28.0,22.0,30.26,West,277,0.0,0.0,78,0.00,,,0.00,,2013-01-17 04:52:00,
2013-01-16 23:04:00,28.0,22.0,30.26,West,277,0.0,0.0,78,0.00,,,0.00,,2013-01-17 05:04:00,
2013-01-16 23:12:00,28.0,22.0,30.26,West,277,0.0,0.0,78,0.00,,,0.00,,2013-01-17 05:12:00,
2013-01-16 23:22:00,28.0,22.0,30.26,West,277,0.0,0.0,79,0.00,,,0.00,,2013-01-17 05:22:00,
2013-01-16 23:33:00,28.0,22.0,30.26,West,277,0.0,0.0,79,0.00,,,0.00,,2013-01-17 05:33:00,
2013-01-16 23:42:00,28.0,22.0,30.26,West,277,0.0,0.0,79,0.00,,,0.00,,2013-01-17 05:42:00,
2013-01-16 23:52:00,27.0,22.0,30.27,West,277,0.0,0.0,80,0.00,,,0.00,,2013-01-17 05:52:00,